owner,sensor,date,latitude,longitude,vertical_datum,wind_speed,wind_to_direction,wind_speed_of_gust,qcFlag 
COAPS,ioos:station:COAPS:N7:1,2016-07-01T00:00:00Z,29.6619,-84.3731,30.0,2.499,149.4,-9999.0,'1111122,1111122,1111122' 
COAPS,ioos:station:COAPS:N7:1,2016-07-01T00:01:00Z,29.6619,-84.3731,30.0,2.857,161.1,-9999.0,'1111122,1111122,1111122' 
COAPS,ioos:station:COAPS:N7:1,2016-07-01T00:02:00Z,29.6619,-84.3731,30.0,2.639,163.9,-9999.0,'1111122,1111122,1111122' 
COAPS,ioos:station:COAPS:N7:1,2016-07-01T00:03:00Z,29.6619,-84.3731,30.0,2.287,163.1,-9999.0,'1111122,1111122,1111122' 
COAPS,ioos:station:COAPS:N7:1,2016-07-01T00:04:00Z,29.6619,-84.3731,30.0,1.988,166.1,-9999.0,'1111122,1111122,1111122' 
COAPS,ioos:station:COAPS:N7:1,2016-07-01T00:05:00Z,29.6619,-84.3731,30.0,2.092,169.4,-9999.0,'1111122,1111122,1111122' 
COAPS,ioos:station:COAPS:N7:1,2016-07-01T00:06:00Z,29.6619,-84.3731,30.0,2.254,174.0,-9999.0,'1111122,1111122,1111122' 
COAPS,ioos:station:COAPS:N7:1,2016-07-01T00:07:00Z,29.6619,-84.3731,30.0,2.538,178.4,-9999.0,'1111122,1111122,1111122' 
COAPS,ioos:station:COAPS:N7:1,2016-07-01T00:08:00Z,29.6619,-84.3731,30.0,2.997,192.2,-9999.0,'1111122,1111122,1111122' 
COAPS,ioos:station:COAPS:N7:1,2016-07-01T00:09:00Z,29.6619,-84.3731,30.0,2.803,189.5,-9999.0,'1111122,1111122,1111122' 
COAPS,ioos:station:COAPS:N7:1,2016-07-01T00:10:00Z,29.6619,-84.3731,30.0,2.514,187.2,-9999.0,'1111122,1111122,1111122' 
COAPS,ioos:station:COAPS:N7:1,2016-07-01T00:11:00Z,29.6619,-84.3731,30.0,2.161,193.4,-9999.0,'1111122,1111122,1111122' 
COAPS,ioos:station:COAPS:N7:1,2016-07-01T00:12:00Z,29.6619,-84.3731,30.0,1.998,193.7,-9999.0,'1111122,1111122,1111122' 
COAPS,ioos:station:COAPS:N7:1,2016-07-01T00:13:00Z,29.6619,-84.3731,30.0,2.716,182.8,-9999.0,'1111122,1111122,1111122' 
COAPS,ioos:station:COAPS:N7:1,2016-07-01T00:14:00Z,29.6619,-84.3731,30.0,3.038,167.8,-9999.0,'1111122,1111122,1111122' 
COAPS,ioos:station:COAPS:N7:1,2016-07-01T00:15:00Z,29.6619,-84.3731,30.0,2.587,166.0,-9999.0,'1111122,1111122,1111122' 
COAPS,ioos:station:COAPS:N7:1,2016-07-01T00:16:00Z,29.6619,-84.3731,30.0,2.461,158.5,-9999.0,'1111122,1111122,1111122' 
COAPS,ioos:station:COAPS:N7:1,2016-07-01T00:17:00Z,29.6619,-84.3731,30.0,2.336,146.5,-9999.0,'1111122,1111122,1111122' 
COAPS,ioos:station:COAPS:N7:1,2016-07-01T00:18:00Z,29.6619,-84.3731,30.0,2.246,137.3,-9999.0,'1111122,1111122,1111122' 
COAPS,ioos:station:COAPS:N7:1,2016-07-01T00:19:00Z,29.6619,-84.3731,30.0,1.971,129.7,-9999.0,'1111122,1111122,1111122' 
COAPS,ioos:station:COAPS:N7:1,2016-07-01T00:20:00Z,29.6619,-84.3731,30.0,2.592,161.5,-9999.0,'1111122,1111122,1111122' 
COAPS,ioos:station:COAPS:N7:1,2016-07-01T00:21:00Z,29.6619,-84.3731,30.0,2.664,176.4,-9999.0,'1111122,1111122,1111122' 
COAPS,ioos:station:COAPS:N7:1,2016-07-01T00:22:00Z,29.6619,-84.3731,30.0,2.277,170.2,-9999.0,'1111122,1111122,1111122' 
COAPS,ioos:station:COAPS:N7:1,2016-07-01T00:23:00Z,29.6619,-84.3731,30.0,2.004,170.7,-9999.0,'1111122,1111122,1111122' 
COAPS,ioos:station:COAPS:N7:1,2016-07-01T00:24:00Z,29.6619,-84.3731,30.0,2.081,178.3,-9999.0,'1111122,1111122,1111122' 
COAPS,ioos:station:COAPS:N7:1,2016-07-01T00:25:00Z,29.6619,-84.3731,30.0,2.136,163.0,-9999.0,'1111122,1111122,1111122' 
COAPS,ioos:station:COAPS:N7:1,2016-07-01T00:26:00Z,29.6619,-84.3731,30.0,1.891,173.7,-9999.0,'1111122,1111122,1111122' 
COAPS,ioos:station:COAPS:N7:1,2016-07-01T00:27:00Z,29.6619,-84.3731,30.0,1.728,179.1,-9999.0,'1111122,1111122,1111122' 
COAPS,ioos:station:COAPS:N7:1,2016-07-01T00:28:00Z,29.6619,-84.3731,30.0,2.076,159.4,-9999.0,'1111122,1111122,1111122' 
COAPS,ioos:station:COAPS:N7:1,2016-07-01T00:29:00Z,29.6619,-84.3731,30.0,1.872,155.2,-9999.0,'1111122,1111122,1111122' 
COAPS,ioos:station:COAPS:N7:1,2016-07-01T00:30:00Z,29.6619,-84.3731,30.0,1.632,162.6,-9999.0,'1111122,1111122,1111122' 
COAPS,ioos:station:COAPS:N7:1,2016-07-01T00:31:00Z,29.6619,-84.3731,30.0,1.663,156.6,-9999.0,'1111122,1111122,1111122' 
COAPS,ioos:station:COAPS:N7:1,2016-07-01T00:32:00Z,29.6619,-84.3731,30.0,1.659,157.8,-9999.0,'1111122,1111122,1111122' 
COAPS,ioos:station:COAPS:N7:1,2016-07-01T00:33:00Z,29.6619,-84.3731,30.0,1.308,160.7,-9999.0,'1111122,1111122,1111122' 
COAPS,ioos:station:COAPS:N7:1,2016-07-01T00:34:00Z,29.6619,-84.3731,30.0,1.624,166.6,-9999.0,'1111122,1111122,1111122' 
COAPS,ioos:station:COAPS:N7:1,2016-07-01T00:35:00Z,29.6619,-84.3731,30.0,2.236,167.1,-9999.0,'1111122,1111122,1111122' 
COAPS,ioos:station:COAPS:N7:1,2016-07-01T00:36:00Z,29.6619,-84.3731,30.0,2.951,167.4,-9999.0,'1111122,1111122,1111122' 
COAPS,ioos:station:COAPS:N7:1,2016-07-01T00:37:00Z,29.6619,-84.3731,30.0,2.786,164.2,-9999.0,'1111122,1111122,1111122' 
COAPS,ioos:station:COAPS:N7:1,2016-07-01T00:38:00Z,29.6619,-84.3731,30.0,2.706,165.5,-9999.0,'1111122,1111122,1111122' 
COAPS,ioos:station:COAPS:N7:1,2016-07-01T00:39:00Z,29.6619,-84.3731,30.0,2.757,165.3,-9999.0,'1111122,1111122,1111122' 
COAPS,ioos:station:COAPS:N7:1,2016-07-01T00:40:00Z,29.6619,-84.3731,30.0,2.274,165.5,-9999.0,'1111122,1111122,1111122' 
COAPS,ioos:station:COAPS:N7:1,2016-07-01T00:41:00Z,29.6619,-84.3731,30.0,2.483,157.6,-9999.0,'1111122,1111122,1111122' 
COAPS,ioos:station:COAPS:N7:1,2016-07-01T00:42:00Z,29.6619,-84.3731,30.0,2.429,161.2,-9999.0,'1111122,1111122,1111122' 
COAPS,ioos:station:COAPS:N7:1,2016-07-01T00:43:00Z,29.6619,-84.3731,30.0,2.476,169.8,-9999.0,'1111122,1111122,1111122' 
COAPS,ioos:station:COAPS:N7:1,2016-07-01T00:44:00Z,29.6619,-84.3731,30.0,2.63,180.3,-9999.0,'1111122,1111122,1111122' 
COAPS,ioos:station:COAPS:N7:1,2016-07-01T00:45:00Z,29.6619,-84.3731,30.0,2.35,179.3,-9999.0,'1111122,1111122,1111122' 
COAPS,ioos:station:COAPS:N7:1,2016-07-01T00:46:00Z,29.6619,-84.3731,30.0,2.907,179.1,-9999.0,'1111122,1111122,1111122' 
COAPS,ioos:station:COAPS:N7:1,2016-07-01T00:47:00Z,29.6619,-84.3731,30.0,2.95,176.0,-9999.0,'1111122,1111122,1111122' 
COAPS,ioos:station:COAPS:N7:1,2016-07-01T00:48:00Z,29.6619,-84.3731,30.0,2.803,169.8,-9999.0,'1111122,1111122,1111122' 
COAPS,ioos:station:COAPS:N7:1,2016-07-01T00:49:00Z,29.6619,-84.3731,30.0,2.264,164.6,-9999.0,'1111122,1111122,1111122' 
COAPS,ioos:station:COAPS:N7:1,2016-07-01T00:50:00Z,29.6619,-84.3731,30.0,2.488,162.1,-9999.0,'1111122,1111122,1111122' 
COAPS,ioos:station:COAPS:N7:1,2016-07-01T00:51:00Z,29.6619,-84.3731,30.0,2.667,153.9,-9999.0,'1111122,1111122,1111122' 
COAPS,ioos:station:COAPS:N7:1,2016-07-01T00:52:00Z,29.6619,-84.3731,30.0,3.105,161.7,-9999.0,'1111122,1111122,1111122' 
COAPS,ioos:station:COAPS:N7:1,2016-07-01T00:53:00Z,29.6619,-84.3731,30.0,3.296,158.7,-9999.0,'1111122,1111122,1111122' 
COAPS,ioos:station:COAPS:N7:1,2016-07-01T00:54:00Z,29.6619,-84.3731,30.0,3.735,164.1,-9999.0,'1111122,1111122,1111122' 
COAPS,ioos:station:COAPS:N7:1,2016-07-01T00:55:00Z,29.6619,-84.3731,30.0,3.595,165.7,-9999.0,'1111122,1111122,1111122' 
COAPS,ioos:station:COAPS:N7:1,2016-07-01T00:56:00Z,29.6619,-84.3731,30.0,3.507,163.4,-9999.0,'1111122,1111122,1111122' 
COAPS,ioos:station:COAPS:N7:1,2016-07-01T00:57:00Z,29.6619,-84.3731,30.0,3.574,164.5,-9999.0,'1111122,1111122,1111122' 
COAPS,ioos:station:COAPS:N7:1,2016-07-01T00:58:00Z,29.6619,-84.3731,30.0,4.047,163.4,-9999.0,'1111122,1111122,1111122' 
COAPS,ioos:station:COAPS:N7:1,2016-07-01T00:59:00Z,29.6619,-84.3731,30.0,3.768,160.0,-9999.0,'1111122,1111122,1111122' 
COAPS,ioos:station:COAPS:N7:1,2016-07-01T01:00:00Z,29.6619,-84.3731,30.0,3.616,162.5,-9999.0,'1111122,1111122,1111122' 
COAPS,ioos:station:COAPS:N7:1,2016-07-01T01:01:00Z,29.6619,-84.3731,30.0,3.762,158.2,-9999.0,'1111122,1111122,1111122' 
COAPS,ioos:station:COAPS:N7:1,2016-07-01T01:02:00Z,29.6619,-84.3731,30.0,3.956,153.8,-9999.0,'1111122,1111122,1111122' 
COAPS,ioos:station:COAPS:N7:1,2016-07-01T01:03:00Z,29.6619,-84.3731,30.0,3.655,161.1,-9999.0,'1111122,1111122,1111122' 
COAPS,ioos:station:COAPS:N7:1,2016-07-01T01:04:00Z,29.6619,-84.3731,30.0,4.273,162.7,-9999.0,'1111122,1111122,1111122' 
COAPS,ioos:station:COAPS:N7:1,2016-07-01T01:05:00Z,29.6619,-84.3731,30.0,4.41,164.7,-9999.0,'1111122,1111122,1111122' 
COAPS,ioos:station:COAPS:N7:1,2016-07-01T01:06:00Z,29.6619,-84.3731,30.0,3.917,161.2,-9999.0,'1111122,1111122,1111122' 
COAPS,ioos:station:COAPS:N7:1,2016-07-01T01:07:00Z,29.6619,-84.3731,30.0,3.49,159.2,-9999.0,'1111122,1111122,1111122' 
COAPS,ioos:station:COAPS:N7:1,2016-07-01T01:08:00Z,29.6619,-84.3731,30.0,3.927,155.6,-9999.0,'1111122,1111122,1111122' 
COAPS,ioos:station:COAPS:N7:1,2016-07-01T01:09:00Z,29.6619,-84.3731,30.0,3.974,152.4,-9999.0,'1111122,1111122,1111122' 
COAPS,ioos:station:COAPS:N7:1,2016-07-01T01:10:00Z,29.6619,-84.3731,30.0,4.082,149.6,-9999.0,'1111122,1111122,1111122' 
COAPS,ioos:station:COAPS:N7:1,2016-07-01T01:11:00Z,29.6619,-84.3731,30.0,4.142,164.8,-9999.0,'1111122,1111122,1111122' 
COAPS,ioos:station:COAPS:N7:1,2016-07-01T01:12:00Z,29.6619,-84.3731,30.0,4.19,162.6,-9999.0,'1111122,1111122,1111122' 
COAPS,ioos:station:COAPS:N7:1,2016-07-01T01:13:00Z,29.6619,-84.3731,30.0,4.345,165.9,-9999.0,'1111122,1111122,1111122' 
COAPS,ioos:station:COAPS:N7:1,2016-07-01T01:14:00Z,29.6619,-84.3731,30.0,4.39,163.4,-9999.0,'1111122,1111122,1111122' 
COAPS,ioos:station:COAPS:N7:1,2016-07-01T01:15:00Z,29.6619,-84.3731,30.0,4.074,163.4,-9999.0,'1111122,1111122,1111122' 
COAPS,ioos:station:COAPS:N7:1,2016-07-01T01:16:00Z,29.6619,-84.3731,30.0,4.253,162.0,-9999.0,'1111122,1111122,1111122' 
COAPS,ioos:station:COAPS:N7:1,2016-07-01T01:17:00Z,29.6619,-84.3731,30.0,4.474,152.9,-9999.0,'1111122,1111122,1111122' 
COAPS,ioos:station:COAPS:N7:1,2016-07-01T01:18:00Z,29.6619,-84.3731,30.0,3.842,150.1,-9999.0,'1111122,1111122,1111122' 
COAPS,ioos:station:COAPS:N7:1,2016-07-01T01:19:00Z,29.6619,-84.3731,30.0,3.765,151.1,-9999.0,'1111122,1111122,1111122' 
COAPS,ioos:station:COAPS:N7:1,2016-07-01T01:20:00Z,29.6619,-84.3731,30.0,4.167,151.5,-9999.0,'1111122,1111122,1111122' 
COAPS,ioos:station:COAPS:N7:1,2016-07-01T01:21:00Z,29.6619,-84.3731,30.0,4.412,162.6,-9999.0,'1111122,1111122,1111122' 
COAPS,ioos:station:COAPS:N7:1,2016-07-01T01:22:00Z,29.6619,-84.3731,30.0,3.864,162.3,-9999.0,'1111122,1111122,1111122' 
COAPS,ioos:station:COAPS:N7:1,2016-07-01T01:23:00Z,29.6619,-84.3731,30.0,3.311,167.3,-9999.0,'1111122,1111122,1111122' 
COAPS,ioos:station:COAPS:N7:1,2016-07-01T01:24:00Z,29.6619,-84.3731,30.0,3.907,158.1,-9999.0,'1111122,1111122,1111122' 
COAPS,ioos:station:COAPS:N7:1,2016-07-01T01:25:00Z,29.6619,-84.3731,30.0,3.468,160.9,-9999.0,'1111122,1111122,1111122' 
COAPS,ioos:station:COAPS:N7:1,2016-07-01T01:26:00Z,29.6619,-84.3731,30.0,3.827,164.3,-9999.0,'1111122,1111122,1111122' 
COAPS,ioos:station:COAPS:N7:1,2016-07-01T01:27:00Z,29.6619,-84.3731,30.0,3.561,168.9,-9999.0,'1111122,1111122,1111122' 
COAPS,ioos:station:COAPS:N7:1,2016-07-01T01:28:00Z,29.6619,-84.3731,30.0,3.43,165.4,-9999.0,'1111122,1111122,1111122' 
COAPS,ioos:station:COAPS:N7:1,2016-07-01T01:29:00Z,29.6619,-84.3731,30.0,3.507,162.7,-9999.0,'1111122,1111122,1111122' 
COAPS,ioos:station:COAPS:N7:1,2016-07-01T01:30:00Z,29.6619,-84.3731,30.0,3.721,174.1,-9999.0,'1111122,1111122,1111122' 
COAPS,ioos:station:COAPS:N7:1,2016-07-01T01:31:00Z,29.6619,-84.3731,30.0,3.476,179.3,-9999.0,'1111122,1111122,1111122' 
COAPS,ioos:station:COAPS:N7:1,2016-07-01T01:32:00Z,29.6619,-84.3731,30.0,2.514,179.1,-9999.0,'1111122,1111122,1111122' 
COAPS,ioos:station:COAPS:N7:1,2016-07-01T01:33:00Z,29.6619,-84.3731,30.0,3.113,162.2,-9999.0,'1111122,1111122,1111122' 
COAPS,ioos:station:COAPS:N7:1,2016-07-01T01:34:00Z,29.6619,-84.3731,30.0,3.391,157.4,-9999.0,'1111122,1111122,1111122' 
COAPS,ioos:station:COAPS:N7:1,2016-07-01T01:35:00Z,29.6619,-84.3731,30.0,3.368,158.1,-9999.0,'1111122,1111122,1111122' 
COAPS,ioos:station:COAPS:N7:1,2016-07-01T01:36:00Z,29.6619,-84.3731,30.0,2.53,160.7,-9999.0,'1111122,1111122,1111122' 
COAPS,ioos:station:COAPS:N7:1,2016-07-01T01:37:00Z,29.6619,-84.3731,30.0,3.035,159.8,-9999.0,'1111122,1111122,1111122' 
COAPS,ioos:station:COAPS:N7:1,2016-07-01T01:38:00Z,29.6619,-84.3731,30.0,3.027,166.9,-9999.0,'1111122,1111122,1111122' 
COAPS,ioos:station:COAPS:N7:1,2016-07-01T01:39:00Z,29.6619,-84.3731,30.0,3.192,180.9,-9999.0,'1111122,1111122,1111122' 
COAPS,ioos:station:COAPS:N7:1,2016-07-01T01:40:00Z,29.6619,-84.3731,30.0,3.208,171.1,-9999.0,'1111122,1111122,1111122' 
COAPS,ioos:station:COAPS:N7:1,2016-07-01T01:41:00Z,29.6619,-84.3731,30.0,2.987,163.9,-9999.0,'1111122,1111122,1111122' 
COAPS,ioos:station:COAPS:N7:1,2016-07-01T01:42:00Z,29.6619,-84.3731,30.0,2.925,161.5,-9999.0,'1111122,1111122,1111122' 
COAPS,ioos:station:COAPS:N7:1,2016-07-01T01:43:00Z,29.6619,-84.3731,30.0,2.938,174.4,-9999.0,'1111122,1111122,1111122' 
COAPS,ioos:station:COAPS:N7:1,2016-07-01T01:44:00Z,29.6619,-84.3731,30.0,3.051,176.9,-9999.0,'1111122,1111122,1111122' 
COAPS,ioos:station:COAPS:N7:1,2016-07-01T01:45:00Z,29.6619,-84.3731,30.0,3.824,173.2,-9999.0,'1111122,1111122,1111122' 
COAPS,ioos:station:COAPS:N7:1,2016-07-01T01:46:00Z,29.6619,-84.3731,30.0,3.682,172.2,-9999.0,'1111122,1111122,1111122' 
COAPS,ioos:station:COAPS:N7:1,2016-07-01T01:47:00Z,29.6619,-84.3731,30.0,3.588,171.9,-9999.0,'1111122,1111122,1111122' 
COAPS,ioos:station:COAPS:N7:1,2016-07-01T01:48:00Z,29.6619,-84.3731,30.0,3.641,176.2,-9999.0,'1111122,1111122,1111122' 
COAPS,ioos:station:COAPS:N7:1,2016-07-01T01:49:00Z,29.6619,-84.3731,30.0,3.549,169.4,-9999.0,'1111122,1111122,1111122' 
COAPS,ioos:station:COAPS:N7:1,2016-07-01T01:50:00Z,29.6619,-84.3731,30.0,3.851,169.0,-9999.0,'1111122,1111122,1111122' 
COAPS,ioos:station:COAPS:N7:1,2016-07-01T01:51:00Z,29.6619,-84.3731,30.0,4.15,168.4,-9999.0,'1111122,1111122,1111122' 
COAPS,ioos:station:COAPS:N7:1,2016-07-01T01:52:00Z,29.6619,-84.3731,30.0,4.601,172.9,-9999.0,'1111122,1111122,1111122' 
COAPS,ioos:station:COAPS:N7:1,2016-07-01T01:53:00Z,29.6619,-84.3731,30.0,4.786,173.8,-9999.0,'1111122,1111122,1111122' 
COAPS,ioos:station:COAPS:N7:1,2016-07-01T01:54:00Z,29.6619,-84.3731,30.0,4.415,177.8,-9999.0,'1111122,1111122,1111122' 
COAPS,ioos:station:COAPS:N7:1,2016-07-01T01:55:00Z,29.6619,-84.3731,30.0,4.111,170.8,-9999.0,'1111122,1111122,1111122' 
COAPS,ioos:station:COAPS:N7:1,2016-07-01T01:56:00Z,29.6619,-84.3731,30.0,3.654,172.6,-9999.0,'1111122,1111122,1111122' 
COAPS,ioos:station:COAPS:N7:1,2016-07-01T01:57:00Z,29.6619,-84.3731,30.0,4.173,170.0,-9999.0,'1111122,1111122,1111122' 
COAPS,ioos:station:COAPS:N7:1,2016-07-01T01:58:00Z,29.6619,-84.3731,30.0,4.928,176.0,-9999.0,'1111122,1111122,1111122' 
COAPS,ioos:station:COAPS:N7:1,2016-07-01T01:59:00Z,29.6619,-84.3731,30.0,5.037,178.9,-9999.0,'1111122,1111122,1111122' 
COAPS,ioos:station:COAPS:N7:1,2016-07-01T02:00:00Z,29.6619,-84.3731,30.0,4.657,175.4,-9999.0,'1111122,1111122,1111122' 
COAPS,ioos:station:COAPS:N7:1,2016-07-01T02:01:00Z,29.6619,-84.3731,30.0,4.392,172.5,-9999.0,'1111122,1111122,1111122' 
COAPS,ioos:station:COAPS:N7:1,2016-07-01T02:02:00Z,29.6619,-84.3731,30.0,4.474,170.4,-9999.0,'1111122,1111122,1111122' 
COAPS,ioos:station:COAPS:N7:1,2016-07-01T02:03:00Z,29.6619,-84.3731,30.0,5.632,167.0,-9999.0,'1111122,1111122,1111122' 
COAPS,ioos:station:COAPS:N7:1,2016-07-01T02:04:00Z,29.6619,-84.3731,30.0,6.056,174.6,-9999.0,'1111122,1111122,1111122' 
COAPS,ioos:station:COAPS:N7:1,2016-07-01T02:05:00Z,29.6619,-84.3731,30.0,5.49,179.6,-9999.0,'1111122,1111122,1111122' 
COAPS,ioos:station:COAPS:N7:1,2016-07-01T02:06:00Z,29.6619,-84.3731,30.0,4.985,177.3,-9999.0,'1111122,1111122,1111122' 
COAPS,ioos:station:COAPS:N7:1,2016-07-01T02:07:00Z,29.6619,-84.3731,30.0,5.232,178.6,-9999.0,'1111122,1111122,1111122' 
COAPS,ioos:station:COAPS:N7:1,2016-07-01T02:08:00Z,29.6619,-84.3731,30.0,4.96,174.4,-9999.0,'1111122,1111122,1111122' 
COAPS,ioos:station:COAPS:N7:1,2016-07-01T02:09:00Z,29.6619,-84.3731,30.0,4.557,170.1,-9999.0,'1111122,1111122,1111122' 
COAPS,ioos:station:COAPS:N7:1,2016-07-01T02:10:00Z,29.6619,-84.3731,30.0,4.619,167.9,-9999.0,'1111122,1111122,1111122' 
COAPS,ioos:station:COAPS:N7:1,2016-07-01T02:11:00Z,29.6619,-84.3731,30.0,4.733,169.4,-9999.0,'1111122,1111122,1111122' 
COAPS,ioos:station:COAPS:N7:1,2016-07-01T02:12:00Z,29.6619,-84.3731,30.0,4.928,172.2,-9999.0,'1111122,1111122,1111122' 
COAPS,ioos:station:COAPS:N7:1,2016-07-01T02:13:00Z,29.6619,-84.3731,30.0,4.652,169.6,-9999.0,'1111122,1111122,1111122' 
COAPS,ioos:station:COAPS:N7:1,2016-07-01T02:14:00Z,29.6619,-84.3731,30.0,4.635,164.8,-9999.0,'1111122,1111122,1111122' 
COAPS,ioos:station:COAPS:N7:1,2016-07-01T02:15:00Z,29.6619,-84.3731,30.0,4.619,163.6,-9999.0,'1111122,1111122,1111122' 
COAPS,ioos:station:COAPS:N7:1,2016-07-01T02:16:00Z,29.6619,-84.3731,30.0,5.454,166.7,-9999.0,'1111122,1111122,1111122' 
COAPS,ioos:station:COAPS:N7:1,2016-07-01T02:17:00Z,29.6619,-84.3731,30.0,5.279,168.6,-9999.0,'1111122,1111122,1111122' 
COAPS,ioos:station:COAPS:N7:1,2016-07-01T02:18:00Z,29.6619,-84.3731,30.0,4.938,165.8,-9999.0,'1111122,1111122,1111122' 
COAPS,ioos:station:COAPS:N7:1,2016-07-01T02:19:00Z,29.6619,-84.3731,30.0,5.086,174.3,-9999.0,'1111122,1111122,1111122' 
COAPS,ioos:station:COAPS:N7:1,2016-07-01T02:20:00Z,29.6619,-84.3731,30.0,4.583,180.5,-9999.0,'1111122,1111122,1111122' 
COAPS,ioos:station:COAPS:N7:1,2016-07-01T02:21:00Z,29.6619,-84.3731,30.0,4.425,175.1,-9999.0,'1111122,1111122,1111122' 
COAPS,ioos:station:COAPS:N7:1,2016-07-01T02:22:00Z,29.6619,-84.3731,30.0,4.113,174.9,-9999.0,'1111122,1111122,1111122' 
COAPS,ioos:station:COAPS:N7:1,2016-07-01T02:23:00Z,29.6619,-84.3731,30.0,4.673,179.7,-9999.0,'1111122,1111122,1111122' 
COAPS,ioos:station:COAPS:N7:1,2016-07-01T02:24:00Z,29.6619,-84.3731,30.0,5.005,183.7,-9999.0,'1111122,1111122,1111122' 
COAPS,ioos:station:COAPS:N7:1,2016-07-01T02:25:00Z,29.6619,-84.3731,30.0,4.81,182.5,-9999.0,'1111122,1111122,1111122' 
COAPS,ioos:station:COAPS:N7:1,2016-07-01T02:26:00Z,29.6619,-84.3731,30.0,4.519,175.8,-9999.0,'1111122,1111122,1111122' 
COAPS,ioos:station:COAPS:N7:1,2016-07-01T02:27:00Z,29.6619,-84.3731,30.0,4.449,184.2,-9999.0,'1111122,1111122,1111122' 
COAPS,ioos:station:COAPS:N7:1,2016-07-01T02:28:00Z,29.6619,-84.3731,30.0,4.515,179.2,-9999.0,'1111122,1111122,1111122' 
COAPS,ioos:station:COAPS:N7:1,2016-07-01T02:29:00Z,29.6619,-84.3731,30.0,4.335,170.0,-9999.0,'1111122,1111122,1111122' 
COAPS,ioos:station:COAPS:N7:1,2016-07-01T02:30:00Z,29.6619,-84.3731,30.0,4.382,169.9,-9999.0,'1111122,1111122,1111122' 
COAPS,ioos:station:COAPS:N7:1,2016-07-01T02:31:00Z,29.6619,-84.3731,30.0,4.858,174.1,-9999.0,'1111122,1111122,1111122' 
COAPS,ioos:station:COAPS:N7:1,2016-07-01T02:32:00Z,29.6619,-84.3731,30.0,5.201,176.2,-9999.0,'1111122,1111122,1111122' 
COAPS,ioos:station:COAPS:N7:1,2016-07-01T02:33:00Z,29.6619,-84.3731,30.0,5.331,180.1,-9999.0,'1111122,1111122,1111122' 
COAPS,ioos:station:COAPS:N7:1,2016-07-01T02:34:00Z,29.6619,-84.3731,30.0,5.147,181.9,-9999.0,'1111122,1111122,1111122' 
COAPS,ioos:station:COAPS:N7:1,2016-07-01T02:35:00Z,29.6619,-84.3731,30.0,4.763,178.8,-9999.0,'1111122,1111122,1111122' 
COAPS,ioos:station:COAPS:N7:1,2016-07-01T02:36:00Z,29.6619,-84.3731,30.0,4.621,179.9,-9999.0,'1111122,1111122,1111122' 
COAPS,ioos:station:COAPS:N7:1,2016-07-01T02:37:00Z,29.6619,-84.3731,30.0,4.591,174.1,-9999.0,'1111122,1111122,1111122' 
COAPS,ioos:station:COAPS:N7:1,2016-07-01T02:38:00Z,29.6619,-84.3731,30.0,4.805,171.9,-9999.0,'1111122,1111122,1111122' 
COAPS,ioos:station:COAPS:N7:1,2016-07-01T02:39:00Z,29.6619,-84.3731,30.0,4.577,176.7,-9999.0,'1111122,1111122,1111122' 
COAPS,ioos:station:COAPS:N7:1,2016-07-01T02:40:00Z,29.6619,-84.3731,30.0,4.706,182.6,-9999.0,'1111122,1111122,1111122' 
COAPS,ioos:station:COAPS:N7:1,2016-07-01T02:41:00Z,29.6619,-84.3731,30.0,4.936,180.4,-9999.0,'1111122,1111122,1111122' 
COAPS,ioos:station:COAPS:N7:1,2016-07-01T02:42:00Z,29.6619,-84.3731,30.0,5.183,184.6,-9999.0,'1111122,1111122,1111122' 
COAPS,ioos:station:COAPS:N7:1,2016-07-01T02:43:00Z,29.6619,-84.3731,30.0,4.5,185.4,-9999.0,'1111122,1111122,1111122' 
COAPS,ioos:station:COAPS:N7:1,2016-07-01T02:44:00Z,29.6619,-84.3731,30.0,4.926,187.0,-9999.0,'1111122,1111122,1111122' 
COAPS,ioos:station:COAPS:N7:1,2016-07-01T02:45:00Z,29.6619,-84.3731,30.0,4.889,184.2,-9999.0,'1111122,1111122,1111122' 
COAPS,ioos:station:COAPS:N7:1,2016-07-01T02:46:00Z,29.6619,-84.3731,30.0,4.853,179.0,-9999.0,'1111122,1111122,1111122' 
COAPS,ioos:station:COAPS:N7:1,2016-07-01T02:47:00Z,29.6619,-84.3731,30.0,4.475,173.8,-9999.0,'1111122,1111122,1111122' 
COAPS,ioos:station:COAPS:N7:1,2016-07-01T02:48:00Z,29.6619,-84.3731,30.0,4.341,178.3,-9999.0,'1111122,1111122,1111122' 
COAPS,ioos:station:COAPS:N7:1,2016-07-01T02:49:00Z,29.6619,-84.3731,30.0,4.743,180.2,-9999.0,'1111122,1111122,1111122' 
COAPS,ioos:station:COAPS:N7:1,2016-07-01T02:50:00Z,29.6619,-84.3731,30.0,4.599,180.3,-9999.0,'1111122,1111122,1111122' 
COAPS,ioos:station:COAPS:N7:1,2016-07-01T02:51:00Z,29.6619,-84.3731,30.0,4.833,182.8,-9999.0,'1111122,1111122,1111122' 
COAPS,ioos:station:COAPS:N7:1,2016-07-01T02:52:00Z,29.6619,-84.3731,30.0,4.779,188.4,-9999.0,'1111122,1111122,1111122' 
COAPS,ioos:station:COAPS:N7:1,2016-07-01T02:53:00Z,29.6619,-84.3731,30.0,4.555,183.4,-9999.0,'1111122,1111122,1111122' 
COAPS,ioos:station:COAPS:N7:1,2016-07-01T02:54:00Z,29.6619,-84.3731,30.0,5.068,184.6,-9999.0,'1111122,1111122,1111122' 
COAPS,ioos:station:COAPS:N7:1,2016-07-01T02:55:00Z,29.6619,-84.3731,30.0,4.737,186.2,-9999.0,'1111122,1111122,1111122' 
COAPS,ioos:station:COAPS:N7:1,2016-07-01T02:56:00Z,29.6619,-84.3731,30.0,4.338,184.2,-9999.0,'1111122,1111122,1111122' 
COAPS,ioos:station:COAPS:N7:1,2016-07-01T02:57:00Z,29.6619,-84.3731,30.0,4.124,188.0,-9999.0,'1111122,1111122,1111122' 
COAPS,ioos:station:COAPS:N7:1,2016-07-01T02:58:00Z,29.6619,-84.3731,30.0,3.838,190.2,-9999.0,'1111122,1111122,1111122' 
COAPS,ioos:station:COAPS:N7:1,2016-07-01T02:59:00Z,29.6619,-84.3731,30.0,3.776,193.1,-9999.0,'1111122,1111122,1111122' 
COAPS,ioos:station:COAPS:N7:1,2016-07-01T03:00:00Z,29.6619,-84.3731,30.0,4.364,193.8,-9999.0,'1111122,1111122,1111122' 
COAPS,ioos:station:COAPS:N7:1,2016-07-01T03:01:00Z,29.6619,-84.3731,30.0,4.266,193.1,-9999.0,'1111122,1111122,1111122' 
COAPS,ioos:station:COAPS:N7:1,2016-07-01T03:02:00Z,29.6619,-84.3731,30.0,3.997,186.4,-9999.0,'1111122,1111122,1111122' 
COAPS,ioos:station:COAPS:N7:1,2016-07-01T03:03:00Z,29.6619,-84.3731,30.0,3.597,185.3,-9999.0,'1111122,1111122,1111122' 
COAPS,ioos:station:COAPS:N7:1,2016-07-01T03:04:00Z,29.6619,-84.3731,30.0,3.732,187.1,-9999.0,'1111122,1111122,1111122' 
COAPS,ioos:station:COAPS:N7:1,2016-07-01T03:05:00Z,29.6619,-84.3731,30.0,3.51,188.4,-9999.0,'1111122,1111122,1111122' 
COAPS,ioos:station:COAPS:N7:1,2016-07-01T03:06:00Z,29.6619,-84.3731,30.0,4.013,181.7,-9999.0,'1111122,1111122,1111122' 
COAPS,ioos:station:COAPS:N7:1,2016-07-01T03:07:00Z,29.6619,-84.3731,30.0,3.863,182.2,-9999.0,'1111122,1111122,1111122' 
COAPS,ioos:station:COAPS:N7:1,2016-07-01T03:08:00Z,29.6619,-84.3731,30.0,4.129,182.6,-9999.0,'1111122,1111122,1111122' 
COAPS,ioos:station:COAPS:N7:1,2016-07-01T03:09:00Z,29.6619,-84.3731,30.0,4.013,181.5,-9999.0,'1111122,1111122,1111122' 
COAPS,ioos:station:COAPS:N7:1,2016-07-01T03:10:00Z,29.6619,-84.3731,30.0,3.814,175.3,-9999.0,'1111122,1111122,1111122' 
COAPS,ioos:station:COAPS:N7:1,2016-07-01T03:11:00Z,29.6619,-84.3731,30.0,3.667,175.4,-9999.0,'1111122,1111122,1111122' 
COAPS,ioos:station:COAPS:N7:1,2016-07-01T03:12:00Z,29.6619,-84.3731,30.0,3.946,183.0,-9999.0,'1111122,1111122,1111122' 
COAPS,ioos:station:COAPS:N7:1,2016-07-01T03:13:00Z,29.6619,-84.3731,30.0,3.93,179.6,-9999.0,'1111122,1111122,1111122' 
COAPS,ioos:station:COAPS:N7:1,2016-07-01T03:14:00Z,29.6619,-84.3731,30.0,4.183,173.6,-9999.0,'1111122,1111122,1111122' 
COAPS,ioos:station:COAPS:N7:1,2016-07-01T03:15:00Z,29.6619,-84.3731,30.0,3.784,168.5,-9999.0,'1111122,1111122,1111122' 
COAPS,ioos:station:COAPS:N7:1,2016-07-01T03:16:00Z,29.6619,-84.3731,30.0,3.415,168.9,-9999.0,'1111122,1111122,1111122' 
COAPS,ioos:station:COAPS:N7:1,2016-07-01T03:17:00Z,29.6619,-84.3731,30.0,4.136,175.5,-9999.0,'1111122,1111122,1111122' 
COAPS,ioos:station:COAPS:N7:1,2016-07-01T03:18:00Z,29.6619,-84.3731,30.0,3.856,171.9,-9999.0,'1111122,1111122,1111122' 